Location: B�rgermoos
(47.6500°N, 9.0667°E)
Time: 04:41:48
(UTC+00:00)

Courier 1B - Visible Passes

Search period start: 01 August 2021 00:00
Search period end: 11 August 2021 00:00
Orbit: 962 x 1209 km, 28.3° (Epoch: 31 July)

Date Brightness Start Highest point End Pass type
(mag) Time Alt. Az. Time Alt. Az. Time Alt. Az.
01 Aug 9.3 20:38:39 10° SW 20:43:07 16° S 20:44:56 15° S visible
02 Aug 9.4 19:44:52 10° SW 19:49:33 17° S 19:54:08 10° SE visible
02 Aug 9.6 21:39:20 10° SW 21:41:10 12° SSW 21:41:10 12° SSW visible
03 Aug 9.4 20:44:53 10° SW 20:48:49 15° SSW 20:50:32 14° S visible
04 Aug 9.5 19:50:47 10° SW 19:55:15 16° S 19:59:40 10° SSE visible
05 Aug 9.7 20:52:06 10° SW 20:54:28 12° SSW 20:56:03 11° S visible
06 Aug 9.7 19:57:20 10° SW 20:00:56 14° SSW 20:04:31 10° SSE visible
08 Aug 9.9 20:06:18 10° SSW 20:06:33 10° SSW 20:06:49 10° SSW visible
